STARLINK-3239 (49743 NORAD) Tracking and Keplerian Element Data

This shows tracking and keplerian element data for the satellite.

Feedback or suggestion? Click here.




ElementValue
Catalog49743
NameSTARLINK-3239
Epoch Orbit130
Epoch Day140.58334491
Epoch Year2022
RAAN265.0594
Inclination53.2171
Eccentricity0.0002099
Argument of Perigee32.3902
Mean Anonmoly64.1679
Mean Motion15.08666797
Decay Rate0.00236835
L11 49743U 21115V 22140.58334491 .00236835 00000+0 14477-1 0 9993
L22 49743 53.2171 265.0594 0002099 32.3902 64.1679 15.08666797 1300

Live tracking and technical data element details for STARLINK-3239 (NORAD 49743). STARLINK-3239 can be tracked NOW for your location showing map with azimuth and elevation plus other details from your city location.

Track the satellite on the map from your city or location and see movement details for azimuth, elevation, latitude, longitude, range, height, and movement on the map or in text.







IsCatalogInMostPopularTable: catalog: 49743, numindb: 21
Update: records affected: 1



GetName: 49743 STARLINK-3239

Hit Count: updated at: Mon, 23 May 2022 20:34:14 GMT